Regional Weather Roundup
Issued by NWS

Home | Current Version | Previous Version | Text Only | Print | Product List | Glossary Off
Versions: 1 2 3 4 5 6 7 8 9 10 11 12 13 14 15 16 17 18 19 20 21 22 23 24 25 26 27 28 29 30 31 32 33 34 35 36 37 38 39 40 41 42 43 44 45 46 47 48 49 50

000
ASUS43 KLOT 230106
RWRIL

ILLINOIS REGIONAL WEATHER ROUNDUP
NATIONAL WEATHER SERVICE CHICAGO/ROMEOVILLE IL
800 PM CDT TUE APR 22 2014

NOTE: "FAIR" INDICATES FEW OR NO CLOUDS BELOW 12,000 FEET WITH NO
SIGNIFICANT WEATHER AND/OR OBSTRUCTIONS TO VISIBILITY.

* THESE STATIONS ARE NOT UNDER NWS QUALITY CONTROL. THEY ALSO MAY NOT
  REPORT WEATHER SUCH AS PRECIPITATION OR FOG.

ILZ001-002-007-009-015-016-024-230200-
NORTHWEST ILLINOIS

CITY           SKY/WX    TMP DP  RH WIND       PRES   REMARKS
MOLINE         CLEAR     57  25  29 N7        29.99
STERLING*      CLEAR     54  30  40 N7        30.00R
SAVANNA*       CLEAR     53  25  33 N5        30.01R
$$

ILZ003-004-008-010-011-017-018-230200-
NORTH CENTRAL ILLINOIS

CITY           SKY/WX    TMP DP  RH WIND       PRES   REMARKS
ROCKFORD       PTCLDY    53  25  33 N10       30.02R
FREEPORT*      PTCLDY    51  26  37 N5        30.02R
ROCHELLE*      PTCLDY    50  29  43 N8        30.01R
DE KALB*       PTCLDY    49  26  40 N9        30.01R
PERU*          CLEAR     55  32  42 CALM      30.00R
$$

ILZ005-006-012>014-019>023-230200-
NORTHEAST ILLINOIS

CITY           SKY/WX    TMP DP  RH WIND       PRES   REMARKS
CHICAGO-OHARE  PTCLDY    44  26  49 NE12      30.03R
CHICAGO-MIDWAY PTCLDY    44  29  55 E12       30.03R
AURORA         CLEAR     48  31  51 E14       30.01R
LANSING*       CLEAR     42  29  59 NE8       30.03R
JOLIET*        CLEAR     45  30  56 NE10G20   30.02R
WAUKEGAN       CLEAR     38  28  67 NE7       30.03R WCI  33
DUPAGE AIRPORT CLEAR     45  29  53 NE14      30.01R
KANKAKEE*      CLEAR     46  33  62 NE13      30.01R
WHEELING       CLEAR     43  27  53 NE7       30.05R
MORRIS*        CLEAR     48  30  49 E12G18    30.01R
ROMEOVILLE*    CLEAR     43  30  60 E14       30.02R
NORTHERLY ISL    N/A     42  31  65 NE7         N/A
$$

LMZ740>746-230200-
SOUTHERN LAKE MICHIGAN

STATION/POSITION SKY/WX   TEMP    WIND        PRES    VSBY  WAVE
                          AIR SEA DIR/SP/G                  HT/PER
                          (F)     (DEG/KT/KT) (MB)    (MI)  (FT/S)
WAUKEGAN HARBOR            41      50/  7/  9 1018.3S
HARRISON CRIB              40      40/  3/  4   N/A
BURNHAM HARBOR             42      30/  5/  7   N/A
CALUMET HARBOR             41      40/  4/  6 1017.6R
MICHIGAN CITY              41      10/  9/ 12   N/A
$$

ILZ025>027-034>036-040-047-049-050-058-095>099-230200-
WEST-CENTRAL ILLINOIS

CITY           SKY/WX    TMP DP  RH WIND       PRES   REMARKS
QUINCY         CLEAR     56  32  40 N8        30.00S
GALESBURG*     CLEAR     55  31  40 NW6       29.99S
MACOMB*        CLEAR     55  30  38 N7        30.02S
JACKSONVILLE*  CLEAR     56  29  34 N6        30.00S
PITTSFIELD*    CLEAR     58  30  34 NW5       30.01S
$$

ILZ028>032-037-038-041>044-048-051>054-059>061-230200-
CENTRAL ILLINOIS

CITY           SKY/WX    TMP DP  RH WIND       PRES   REMARKS
PONTIAC        CLEAR     55  30  38 N9        29.98R HAZE
BLOOMINGTON    CLEAR     55  26  32 N10       29.99R
DECATUR        CLEAR     57  30  35 N8        29.97R
PEORIA         CLEAR     60  25  26 N5        29.99R
LACON*         CLEAR     56  29  35 N6        29.99R
LINCOLN*       CLEAR     59  28  30 NW3       29.97S
SPRINGFIELD    CLEAR     59  28  30 NW6       29.98S
TAYLORVILLE    CLEAR     55  32  41 NW8       29.98R
$$

ILZ033-039-045-046-055>057-062-063-230200-
EAST-CENTRAL ILLINOIS

CITY           SKY/WX    TMP DP  RH WIND       PRES   REMARKS
CHAMPAIGN      PTCLDY    56  32  40 N13       29.97R
RANTOUL*       CLEAR     58  31  35 CALM      29.98R
MATTOON        CLEAR     54  32  43 N9        29.95R
PARIS*         PTCLDY    56  35  45 N5        29.97R
$$

ILZ079-100>102-230200-
SOUTHWEST ILLINOIS

CITY           SKY/WX    TMP DP  RH WIND       PRES   REMARKS
ALTON          CLEAR     61  25  25 NW5       29.98S
BELLEVILLE     CLEAR     60  34  37 VRB5      29.98R
CAHOKIA*       CLEAR     62  33  33 N8        29.98R
SPARTA*        CLEAR     61  36  39 NW3       29.99R
$$

ILZ064>066-069>071-074>076-080>082-084>086-088>090-092>094-230200-
SOUTH-CENTRAL ILLINOIS

CITY           SKY/WX    TMP DP  RH WIND       PRES   REMARKS
CARBONDALE     CLEAR     58  39  49 N6        29.97S
CAIRO*         CLEAR     66  37  34 N8        29.95R
MARION         CLEAR     63  39  42 NW3       29.97S
MT. VERNON     CLEAR     61  32  33 CALM      29.98R
CENTRALIA*       N/A     59  33  37 CALM      29.98R
SALEM*         CLEAR     59  39  47 N8        29.97R
METROPOLIS*    CLEAR     62  32  31 N3        29.95R
$$

ILZ067-068-072-073-078-083-087-091-230200-
SOUTHEAST ILLINOIS

CITY           SKY/WX    TMP DP  RH WIND       PRES   REMARKS
FAIRFIELD*     CLEAR     63  37  39 CALM      29.96R
HARRISBURG*    CLEAR     60  37  41 NW3       29.97R
ROBINSON*      CLEAR     59  37  44 N7        29.95R
CARMI*         CLEAR     60  43  52 NW7       29.94S
$$

ABBREVIATIONS USED IN REMARKS
   TC - TEMPERATURE IN CELSIUS
  WCI - WIND CHILL INDEX
   HX - HEAT INDEX
  VSB - VISIBILITY
$$




USA.gov is the U.S. government's official web portal to all federal, state and local government web resources and services.